contact:dominique.lefevre@mio.osupytheas.fr, maurice.libes@osupytheas.fr, didier.mallarino@osupytheas.fr
Project:EMSO http://www.emso-fr.org/EMSO-France
Depth: 2436.0 m
Title:EMSO Ligure Ouest : Data MII capteur CSTAR
DateTime,Latitude,Longitude,Instrument_Serial,Reference_Counts,Signal_Counts,Corrected_Signal_raw_counts,Calculated_Beam_c_inverse_meters,Internal_thermistor_counts
DateTime,Latitude,Longitude,Instrument_Serial,Reference_Counts,Signal_Counts,Corrected_Signal_raw_counts,Calculated_Beam_c_inverse_meters,Internal_thermistor_counts
2022-03-25T00:02:08,42.805,6.029,CST-1368DR,4837,5771,12731,0.817,551
2022-03-25T00:05:10,42.805,6.029,CST-1368DR,4837,5773,12736,0.815,551
2022-03-25T00:08:12,42.805,6.029,CST-1368DR,4837,5773,12736,0.815,551
2022-03-25T00:11:13,42.805,6.029,CST-1368DR,4837,5771,12732,0.817,551
2022-03-25T00:14:15,42.805,6.029,CST-1368DR,4837,5771,12732,0.817,551
2022-03-25T00:17:16,42.805,6.029,CST-1368DR,4837,5772,12734,0.816,551
2022-03-25T00:20:18,42.805,6.029,CST-1368DR,4837,5773,12736,0.815,551
2022-03-25T00:23:19,42.805,6.029,CST-1368DR,4837,5771,12732,0.817,551
2022-03-25T00:26:21,42.805,6.029,CST-1368DR,4837,5772,12734,0.816,551
2022-03-25T00:29:23,42.805,6.029,CST-1368DR,4837,5770,12730,0.817,551
2022-03-25T00:32:24,42.805,6.029,CST-1368DR,4837,5771,12732,0.817,551
2022-03-25T00:35:26,42.805,6.029,CST-1368DR,4837,5766,12720,0.820,551
2022-03-25T00:38:27,42.805,6.029,CST-1368DR,4837,5770,12730,0.817,551
2022-03-25T00:41:29,42.805,6.029,CST-1368DR,4837,5770,12729,0.818,551
2022-03-25T00:44:30,42.805,6.029,CST-1368DR,4837,5770,12730,0.817,551
2022-03-25T00:47:32,42.805,6.029,CST-1368DR,4837,5771,12732,0.817,551
2022-03-25T00:50:34,42.805,6.029,CST-1368DR,4837,5773,12735,0.816,551
2022-03-25T00:53:35,42.805,6.029,CST-1368DR,4837,5772,12733,0.816,551
2022-03-25T00:56:37,42.805,6.029,CST-1368DR,4837,5771,12732,0.817,551
2022-03-25T00:59:38,42.805,6.029,CST-1368DR,4837,5774,12738,0.815,551
2022-03-25T01:02:40,42.805,6.029,CST-1368DR,4837,5772,12734,0.816,551
2022-03-25T01:05:42,42.805,6.029,CST-1368DR,4836,5775,12743,0.813,551
2022-03-25T01:08:43,42.805,6.029,CST-1368DR,4837,5775,12739,0.815,551
2022-03-25T01:11:45,42.805,6.029,CST-1368DR,4837,5776,12742,0.814,551
2022-03-25T01:14:46,42.805,6.029,CST-1368DR,4836,5775,12743,0.813,551
2022-03-25T01:17:48,42.805,6.029,CST-1368DR,4836,5775,12743,0.813,551
2022-03-25T01:20:49,42.805,6.029,CST-1368DR,4836,5774,12741,0.814,551
2022-03-25T01:23:51,42.805,6.029,CST-1368DR,4836,5774,12741,0.814,551
2022-03-25T01:26:53,42.805,6.029,CST-1368DR,4836,5768,12727,0.818,551
2022-03-25T01:29:54,42.805,6.029,CST-1368DR,4836,5771,12735,0.816,551
2022-03-25T01:32:56,42.805,6.029,CST-1368DR,4836,5773,12738,0.815,551
2022-03-25T01:35:57,42.805,6.029,CST-1368DR,4836,5773,12738,0.815,551
2022-03-25T01:38:59,42.805,6.029,CST-1368DR,4836,5773,12739,0.815,550
2022-03-25T01:42:01,42.805,6.029,CST-1368DR,4836,5779,12752,0.810,551
2022-03-25T01:45:02,42.805,6.029,CST-1368DR,4836,5772,12735,0.816,550
2022-03-25T01:48:04,42.805,6.029,CST-1368DR,4836,5774,12741,0.814,551
2022-03-25T01:51:05,42.805,6.029,CST-1368DR,4836,5776,12745,0.813,551
2022-03-25T01:54:07,42.805,6.029,CST-1368DR,4836,5777,12746,0.812,551
2022-03-25T01:57:08,42.805,6.029,CST-1368DR,4836,5775,12744,0.813,551
2022-03-25T02:00:10,42.805,6.029,CST-1368DR,4836,5776,12745,0.813,551
2022-03-25T02:03:12,42.805,6.029,CST-1368DR,4836,5775,12744,0.813,551
2022-03-25T02:06:13,42.805,6.029,CST-1368DR,4836,5778,12749,0.811,551
2022-03-25T02:09:15,42.805,6.029,CST-1368DR,4836,5780,12755,0.809,551
2022-03-25T02:12:16,42.805,6.029,CST-1368DR,4836,5781,12757,0.809,551
2022-03-25T02:15:18,42.805,6.029,CST-1368DR,4836,5779,12752,0.810,551
2022-03-25T02:18:19,42.805,6.029,CST-1368DR,4836,5779,12752,0.810,551
2022-03-25T02:21:21,42.805,6.029,CST-1368DR,4836,5779,12752,0.810,551
2022-03-25T02:24:23,42.805,6.029,CST-1368DR,4836,5779,12751,0.811,551
2022-03-25T02:27:24,42.805,6.029,CST-1368DR,4836,5779,12751,0.811,551
2022-03-25T02:30:26,42.805,6.029,CST-1368DR,4836,5779,12752,0.810,551
2022-03-25T02:33:27,42.805,6.029,CST-1368DR,4836,5779,12752,0.810,551
2022-03-25T02:36:29,42.805,6.029,CST-1368DR,4836,5779,12752,0.810,551
2022-03-25T02:39:31,42.805,6.029,CST-1368DR,4836,5782,12757,0.809,551
2022-03-25T02:42:32,42.805,6.029,CST-1368DR,4836,5780,12753,0.810,551
2022-03-25T02:45:34,42.805,6.029,CST-1368DR,4836,5782,12757,0.809,551
2022-03-25T02:48:35,42.805,6.029,CST-1368DR,4836,5780,12755,0.809,551
2022-03-25T02:51:37,42.805,6.029,CST-1368DR,4836,5779,12752,0.810,551
2022-03-25T02:54:38,42.805,6.029,CST-1368DR,4836,5779,12752,0.810,551
2022-03-25T02:57:40,42.805,6.029,CST-1368DR,4836,5782,12757,0.809,551
2022-03-25T03:00:42,42.805,6.029,CST-1368DR,4836,5781,12757,0.809,551
2022-03-25T03:03:43,42.805,6.029,CST-1368DR,4836,5780,12755,0.809,551
2022-03-25T03:06:45,42.805,6.029,CST-1368DR,4836,5780,12754,0.810,551
2022-03-25T03:09:46,42.805,6.029,CST-1368DR,4836,5780,12754,0.810,551
2022-03-25T03:12:48,42.805,6.029,CST-1368DR,4836,5782,12757,0.809,551
2022-03-25T03:15:49,42.805,6.029,CST-1368DR,4836,5779,12752,0.810,551
2022-03-25T03:18:51,42.805,6.029,CST-1368DR,4836,5779,12751,0.811,551
2022-03-25T03:21:53,42.805,6.029,CST-1368DR,4836,5778,12750,0.811,551
2022-03-25T03:24:54,42.805,6.029,CST-1368DR,4836,5778,12750,0.811,551
2022-03-25T03:27:56,42.805,6.029,CST-1368DR,4836,5779,12751,0.811,551
2022-03-25T03:30:57,42.805,6.029,CST-1368DR,4836,5777,12748,0.812,551
2022-03-25T03:33:59,42.805,6.029,CST-1368DR,4836,5778,12749,0.811,551
2022-03-25T03:37:01,42.805,6.029,CST-1368DR,4836,5776,12746,0.812,551
2022-03-25T03:40:02,42.805,6.029,CST-1368DR,4836,5779,12751,0.811,551
2022-03-25T03:43:04,42.805,6.029,CST-1368DR,4836,5778,12749,0.811,551
2022-03-25T03:46:05,42.805,6.029,CST-1368DR,4836,5776,12744,0.813,551
2022-03-25T03:49:07,42.805,6.029,CST-1368DR,4836,5776,12745,0.813,551
2022-03-25T03:52:08,42.805,6.029,CST-1368DR,4836,5778,12750,0.811,551
2022-03-25T03:55:10,42.805,6.029,CST-1368DR,4836,5776,12745,0.813,551
2022-03-25T03:58:12,42.805,6.029,CST-1368DR,4836,5777,12746,0.812,551
2022-03-25T04:01:13,42.805,6.029,CST-1368DR,4836,5778,12750,0.811,551
2022-03-25T04:04:15,42.805,6.029,CST-1368DR,4836,5778,12749,0.811,551
2022-03-25T04:07:16,42.805,6.029,CST-1368DR,4836,5780,12753,0.810,551
2022-03-25T04:10:18,42.805,6.029,CST-1368DR,4836,5776,12744,0.813,551
2022-03-25T04:13:19,42.805,6.029,CST-1368DR,4836,5777,12748,0.812,551
2022-03-25T04:16:21,42.805,6.029,CST-1368DR,4836,5777,12748,0.812,551
2022-03-25T04:19:23,42.805,6.029,CST-1368DR,4836,5779,12751,0.811,551
2022-03-25T04:22:24,42.805,6.029,CST-1368DR,4836,5777,12747,0.812,551
2022-03-25T04:25:26,42.805,6.029,CST-1368DR,4836,5778,12749,0.811,551
2022-03-25T04:28:27,42.805,6.029,CST-1368DR,4836,5776,12745,0.813,551
2022-03-25T04:31:29,42.805,6.029,CST-1368DR,4836,5776,12746,0.812,551
2022-03-25T04:34:31,42.805,6.029,CST-1368DR,4836,5776,12745,0.813,551
2022-03-25T04:37:32,42.805,6.029,CST-1368DR,4836,5776,12745,0.813,551
2022-03-25T04:40:34,42.805,6.029,CST-1368DR,4836,5775,12743,0.813,551
2022-03-25T04:43:35,42.805,6.029,CST-1368DR,4836,5777,12748,0.812,551
2022-03-25T04:46:37,42.805,6.029,CST-1368DR,4836,5776,12745,0.813,551
2022-03-25T04:49:38,42.805,6.029,CST-1368DR,4836,5776,12746,0.812,551
2022-03-25T04:52:40,42.805,6.029,CST-1368DR,4836,5776,12745,0.813,551
2022-03-25T04:55:42,42.805,6.029,CST-1368DR,4836,5766,12722,0.820,551
2022-03-25T04:58:43,42.805,6.029,CST-1368DR,4836,5775,12743,0.813,551
2022-03-25T05:01:45,42.805,6.029,CST-1368DR,4836,5778,12749,0.811,551
2022-03-25T05:04:46,42.805,6.029,CST-1368DR,4836,5775,12744,0.813,551
2022-03-25T05:07:48,42.805,6.029,CST-1368DR,4836,5775,12744,0.813,551
2022-03-25T05:10:49,42.805,6.029,CST-1368DR,4836,5773,12738,0.815,551
2022-03-25T05:13:51,42.805,6.029,CST-1368DR,4836,5776,12745,0.813,551
2022-03-25T05:16:53,42.805,6.029,CST-1368DR,4836,5776,12744,0.813,551
2022-03-25T05:19:54,42.805,6.029,CST-1368DR,4836,5773,12739,0.815,551
2022-03-25T05:22:56,42.805,6.029,CST-1368DR,4836,5777,12746,0.812,551
2022-03-25T05:25:57,42.805,6.029,CST-1368DR,4836,5775,12744,0.813,551
2022-03-25T05:28:59,42.805,6.029,CST-1368DR,4836,5777,12746,0.812,551
2022-03-25T05:32:01,42.805,6.029,CST-1368DR,4836,5777,12748,0.812,551
2022-03-25T05:35:02,42.805,6.029,CST-1368DR,4836,5776,12745,0.813,551
2022-03-25T05:38:04,42.805,6.029,CST-1368DR,4836,5778,12750,0.811,551
2022-03-25T05:41:05,42.805,6.029,CST-1368DR,4835,5776,12748,0.812,551
2022-03-25T05:44:07,42.805,6.029,CST-1368DR,4836,5777,12746,0.812,551
2022-03-25T05:47:08,42.805,6.029,CST-1368DR,4835,5775,12745,0.813,551
2022-03-25T05:50:10,42.805,6.029,CST-1368DR,4836,5776,12745,0.813,551
2022-03-25T05:53:12,42.805,6.029,CST-1368DR,4835,5779,12754,0.810,551
2022-03-25T05:56:13,42.805,6.029,CST-1368DR,4836,5777,12747,0.812,551
2022-03-25T05:59:15,42.805,6.029,CST-1368DR,4835,5777,12749,0.811,551
2022-03-25T06:02:16,42.805,6.029,CST-1368DR,4836,5776,12745,0.813,551
2022-03-25T06:05:18,42.805,6.029,CST-1368DR,4835,5777,12749,0.811,551
2022-03-25T06:08:19,42.805,6.029,CST-1368DR,4836,5777,12746,0.812,551
2022-03-25T06:11:21,42.805,6.029,CST-1368DR,4835,5775,12745,0.813,551
2022-03-25T06:14:23,42.805,6.029,CST-1368DR,4836,5777,12746,0.812,551
2022-03-25T06:17:24,42.805,6.029,CST-1368DR,4836,5776,12746,0.812,551
2022-03-25T06:20:26,42.805,6.029,CST-1368DR,4835,5775,12745,0.813,551
2022-03-25T06:23:27,42.805,6.029,CST-1368DR,4835,5776,12747,0.812,551
2022-03-25T06:26:29,42.805,6.029,CST-1368DR,4835,5776,12748,0.812,551
2022-03-25T06:29:31,42.805,6.029,CST-1368DR,4835,5776,12747,0.812,551
2022-03-25T06:32:32,42.805,6.029,CST-1368DR,4835,5777,12749,0.811,551
2022-03-25T06:35:34,42.805,6.029,CST-1368DR,4835,5776,12748,0.812,551
2022-03-25T06:38:35,42.805,6.029,CST-1368DR,4835,5776,12748,0.812,551
2022-03-25T06:41:37,42.805,6.029,CST-1368DR,4835,5777,12749,0.811,551
2022-03-25T06:44:38,42.805,6.029,CST-1368DR,4835,5769,12733,0.816,550
2022-03-25T06:47:40,42.805,6.029,CST-1368DR,4835,5779,12753,0.810,551
2022-03-25T06:50:42,42.805,6.029,CST-1368DR,4835,5778,12752,0.810,551
2022-03-25T06:53:43,42.805,6.029,CST-1368DR,4835,5775,12745,0.813,551
2022-03-25T06:56:45,42.805,6.029,CST-1368DR,4835,5776,12747,0.812,550
2022-03-25T06:59:46,42.805,6.029,CST-1368DR,4835,5776,12748,0.812,551
2022-03-25T07:02:48,42.805,6.029,CST-1368DR,4835,5776,12747,0.812,551
2022-03-25T07:05:50,42.805,6.029,CST-1368DR,4835,5775,12746,0.812,551
2022-03-25T07:08:51,42.805,6.029,CST-1368DR,4835,5777,12749,0.811,551
2022-03-25T07:11:53,42.805,6.029,CST-1368DR,4835,5776,12748,0.812,551
2022-03-25T07:14:54,42.805,6.029,CST-1368DR,4835,5776,12748,0.812,551
2022-03-25T07:17:56,42.805,6.029,CST-1368DR,4835,5776,12748,0.812,551
2022-03-25T07:20:57,42.805,6.029,CST-1368DR,4835,5775,12745,0.813,551
2022-03-25T07:23:59,42.805,6.029,CST-1368DR,4835,5775,12745,0.813,551
2022-03-25T07:27:01,42.805,6.029,CST-1368DR,4835,5776,12747,0.812,551
2022-03-25T07:30:02,42.805,6.029,CST-1368DR,4835,5776,12748,0.812,551
2022-03-25T07:33:04,42.805,6.029,CST-1368DR,4835,5775,12745,0.813,551
2022-03-25T07:36:05,42.805,6.029,CST-1368DR,4835,5775,12745,0.813,551
2022-03-25T07:39:07,42.805,6.029,CST-1368DR,4835,5775,12745,0.813,551
2022-03-25T07:42:08,42.805,6.029,CST-1368DR,4835,5775,12746,0.812,551
2022-03-25T07:45:10,42.805,6.029,CST-1368DR,4835,5775,12745,0.813,551
2022-03-25T07:48:12,42.805,6.029,CST-1368DR,4835,5773,12742,0.814,551
2022-03-25T07:51:13,42.805,6.029,CST-1368DR,4835,5775,12746,0.812,551
2022-03-25T07:54:15,42.805,6.029,CST-1368DR,4835,5775,12746,0.812,551
2022-03-25T07:57:16,42.805,6.029,CST-1368DR,4835,5776,12747,0.812,551
2022-03-25T08:00:18,42.805,6.029,CST-1368DR,4835,5775,12745,0.813,551
2022-03-25T08:03:20,42.805,6.029,CST-1368DR,4835,5775,12746,0.812,551
2022-03-25T08:06:21,42.805,6.029,CST-1368DR,4835,5776,12747,0.812,551
2022-03-25T08:09:23,42.805,6.029,CST-1368DR,4835,5776,12748,0.812,551
2022-03-25T08:12:24,42.805,6.029,CST-1368DR,4835,5777,12749,0.811,551
2022-03-25T08:15:26,42.805,6.029,CST-1368DR,4835,5776,12748,0.812,551
2022-03-25T08:18:27,42.805,6.029,CST-1368DR,4835,5778,12753,0.810,551
2022-03-25T08:21:29,42.805,6.029,CST-1368DR,4835,5778,12751,0.811,551
2022-03-25T08:24:31,42.805,6.029,CST-1368DR,4835,5776,12747,0.812,551
2022-03-25T08:27:32,42.805,6.029,CST-1368DR,4835,5802,12805,0.794,551
2022-03-25T08:30:34,42.805,6.029,CST-1368DR,4835,5778,12752,0.810,551
2022-03-25T08:33:35,42.805,6.029,CST-1368DR,4835,5776,12748,0.812,551
2022-03-25T08:36:37,42.805,6.029,CST-1368DR,4835,5777,12749,0.811,551
2022-03-25T08:39:39,42.805,6.029,CST-1368DR,4835,5777,12749,0.811,551
2022-03-25T08:42:40,42.805,6.029,CST-1368DR,4835,5776,12747,0.812,551
2022-03-25T08:45:42,42.805,6.029,CST-1368DR,4835,5775,12745,0.813,551
2022-03-25T08:48:43,42.805,6.029,CST-1368DR,4835,5773,12741,0.814,551
2022-03-25T08:51:45,42.805,6.029,CST-1368DR,4835,5773,12741,0.814,551
2022-03-25T08:54:46,42.805,6.029,CST-1368DR,4835,5769,12733,0.816,551
2022-03-25T08:57:48,42.805,6.029,CST-1368DR,4835,5771,12736,0.815,551
2022-03-25T09:00:50,42.805,6.029,CST-1368DR,4835,5771,12737,0.815,551
2022-03-25T09:03:51,42.805,6.029,CST-1368DR,4835,5771,12737,0.815,551
2022-03-25T09:06:53,42.805,6.029,CST-1368DR,4835,5772,12738,0.815,551
2022-03-25T09:09:54,42.805,6.029,CST-1368DR,4835,5767,12727,0.818,551
2022-03-25T09:12:56,42.805,6.029,CST-1368DR,4835,5769,12732,0.817,551
2022-03-25T09:15:57,42.805,6.029,CST-1368DR,4835,5770,12735,0.816,551
2022-03-25T09:18:59,42.805,6.029,CST-1368DR,4835,5771,12736,0.815,551
2022-03-25T09:22:01,42.805,6.029,CST-1368DR,4835,5770,12735,0.816,550
2022-03-25T09:25:02,42.805,6.029,CST-1368DR,4835,5769,12733,0.816,551
2022-03-25T09:28:04,42.805,6.029,CST-1368DR,4835,5771,12737,0.815,551
2022-03-25T09:31:05,42.805,6.029,CST-1368DR,4835,5771,12736,0.815,551
2022-03-25T09:34:07,42.805,6.029,CST-1368DR,4835,5773,12741,0.814,551
2022-03-25T09:37:09,42.805,6.029,CST-1368DR,4835,5769,12732,0.817,551
2022-03-25T09:40:10,42.805,6.029,CST-1368DR,4835,5812,12828,0.787,551
2022-03-25T09:43:12,42.805,6.029,CST-1368DR,4835,5779,12753,0.810,551
2022-03-25T09:46:13,42.805,6.029,CST-1368DR,4835,5801,12802,0.795,551
2022-03-25T09:49:15,42.805,6.029,CST-1368DR,4835,5802,12804,0.794,551
2022-03-25T09:52:16,42.805,6.029,CST-1368DR,4835,5814,12832,0.785,551
2022-03-25T09:55:18,42.805,6.029,CST-1368DR,4835,5819,12842,0.782,551
2022-03-25T09:58:20,42.805,6.029,CST-1368DR,4835,5823,12852,0.779,551
2022-03-25T10:01:21,42.805,6.029,CST-1368DR,4835,5819,12842,0.782,551
2022-03-25T10:04:23,42.805,6.029,CST-1368DR,4835,5816,12836,0.784,551
2022-03-25T10:07:24,42.805,6.029,CST-1368DR,4835,5815,12833,0.785,551
2022-03-25T10:10:26,42.805,6.029,CST-1368DR,4835,5824,12854,0.779,551
2022-03-25T10:13:27,42.805,6.029,CST-1368DR,4835,5797,12793,0.798,551
2022-03-25T10:16:29,42.805,6.029,CST-1368DR,4835,5804,12809,0.793,551
2022-03-25T10:19:31,42.805,6.029,CST-1368DR,4834,5793,12788,0.799,551
2022-03-25T10:22:32,42.805,6.029,CST-1368DR,4834,5784,12769,0.805,551
2022-03-25T10:25:34,42.805,6.029,CST-1368DR,4835,5812,12828,0.787,551
2022-03-25T10:28:35,42.805,6.029,CST-1368DR,4834,5796,12794,0.797,551
2022-03-25T10:31:37,42.805,6.029,CST-1368DR,4834,5790,12781,0.801,551
2022-03-25T10:34:39,42.805,6.029,CST-1368DR,4834,5784,12767,0.806,551
2022-03-25T10:37:40,42.805,6.029,CST-1368DR,4834,5785,12770,0.805,551
2022-03-25T10:40:42,42.805,6.029,CST-1368DR,4834,5779,12756,0.809,550
2022-03-25T10:43:43,42.805,6.029,CST-1368DR,4834,5781,12761,0.808,551
2022-03-25T10:46:45,42.805,6.029,CST-1368DR,4833,5780,12761,0.808,551
2022-03-25T10:49:46,42.805,6.029,CST-1368DR,4833,5765,12729,0.818,550
2022-03-25T10:52:48,42.805,6.029,CST-1368DR,4833,5782,12767,0.806,551
2022-03-25T10:55:50,42.805,6.029,CST-1368DR,4833,5782,12765,0.806,551
2022-03-25T10:58:51,42.805,6.029,CST-1368DR,4833,5779,12760,0.808,551
2022-03-25T11:01:53,42.805,6.029,CST-1368DR,4833,5780,12761,0.808,550
2022-03-25T11:04:54,42.805,6.029,CST-1368DR,4833,5776,12753,0.810,551
2022-03-25T11:07:56,42.805,6.029,CST-1368DR,4833,5775,12750,0.811,551
2022-03-25T11:10:57,42.805,6.029,CST-1368DR,4833,5774,12749,0.811,551
2022-03-25T11:13:59,42.805,6.029,CST-1368DR,4833,5773,12746,0.812,551
2022-03-25T11:17:01,42.805,6.029,CST-1368DR,4833,5774,12749,0.811,551
2022-03-25T11:20:02,42.805,6.029,CST-1368DR,4833,5774,12748,0.812,551
2022-03-25T11:23:04,42.805,6.029,CST-1368DR,4833,5776,12752,0.810,551
2022-03-25T11:26:05,42.805,6.029,CST-1368DR,4833,5770,12739,0.815,550
2022-03-25T11:29:07,42.805,6.029,CST-1368DR,4833,5761,12720,0.820,551
2022-03-25T11:32:09,42.805,6.029,CST-1368DR,4833,5759,12715,0.822,551
2022-03-25T11:35:10,42.805,6.029,CST-1368DR,4833,5772,12744,0.813,551
2022-03-25T11:38:12,42.805,6.029,CST-1368DR,4833,5769,12737,0.815,551
2022-03-25T11:41:13,42.805,6.029,CST-1368DR,4833,5726,12642,0.845,549
2022-03-25T11:44:15,42.805,6.029,CST-1368DR,4834,5773,12744,0.813,551
2022-03-25T11:47:16,42.805,6.029,CST-1368DR,4834,5767,12730,0.817,551
2022-03-25T11:50:18,42.805,6.029,CST-1368DR,4834,5769,12735,0.816,551
2022-03-25T11:53:20,42.805,6.029,CST-1368DR,4833,5732,12655,0.841,551
2022-03-25T11:56:21,42.805,6.029,CST-1368DR,4834,5768,12732,0.817,551
2022-03-25T11:59:23,42.805,6.029,CST-1368DR,4834,5733,12655,0.841,551
2022-03-25T12:02:24,42.805,6.029,CST-1368DR,4834,5753,12700,0.827,551
2022-03-25T12:05:26,42.805,6.029,CST-1368DR,4834,5766,12728,0.818,551
2022-03-25T12:08:28,42.805,6.029,CST-1368DR,4834,5768,12732,0.817,551
2022-03-25T12:11:29,42.805,6.029,CST-1368DR,4834,5770,12737,0.815,551
2022-03-25T12:14:31,42.805,6.029,CST-1368DR,4834,5760,12714,0.822,551
2022-03-25T12:17:32,42.805,6.029,CST-1368DR,4834,5767,12730,0.817,551
2022-03-25T12:20:34,42.805,6.029,CST-1368DR,4834,5760,12715,0.822,551
2022-03-25T12:23:35,42.805,6.029,CST-1368DR,4834,5758,12711,0.823,551
2022-03-25T12:26:37,42.805,6.029,CST-1368DR,4834,5758,12710,0.824,551
2022-03-25T12:29:39,42.805,6.029,CST-1368DR,4834,5748,12689,0.830,551
2022-03-25T12:32:40,42.805,6.029,CST-1368DR,4834,5749,12690,0.830,551
2022-03-25T12:35:42,42.805,6.029,CST-1368DR,4834,5762,12719,0.821,551
2022-03-25T12:38:43,42.805,6.029,CST-1368DR,4834,5764,12723,0.820,551
2022-03-25T12:41:45,42.805,6.029,CST-1368DR,4834,5752,12696,0.828,551
2022-03-25T12:44:46,42.805,6.029,CST-1368DR,4834,5753,12698,0.827,551
2022-03-25T12:47:48,42.805,6.029,CST-1368DR,4834,5766,12728,0.818,551
2022-03-25T12:50:50,42.805,6.029,CST-1368DR,4834,5759,12713,0.823,551
2022-03-25T12:53:51,42.805,6.029,CST-1368DR,4834,5755,12703,0.826,551
2022-03-25T12:56:53,42.805,6.029,CST-1368DR,4834,5760,12716,0.822,551
2022-03-25T12:59:54,42.805,6.029,CST-1368DR,4834,5765,12726,0.819,551
2022-03-25T13:02:56,42.805,6.029,CST-1368DR,4834,5769,12734,0.816,551
2022-03-25T13:05:58,42.805,6.029,CST-1368DR,4834,5770,12737,0.815,551
2022-03-25T13:08:59,42.805,6.029,CST-1368DR,4834,5768,12733,0.816,551
2022-03-25T13:12:01,42.805,6.029,CST-1368DR,4834,5769,12735,0.816,551
2022-03-25T13:15:02,42.805,6.029,CST-1368DR,4834,5765,12726,0.819,551
2022-03-25T13:18:04,42.805,6.029,CST-1368DR,4834,5759,12712,0.823,551
2022-03-25T13:21:05,42.805,6.029,CST-1368DR,4834,5763,12722,0.820,551
2022-03-25T13:24:07,42.805,6.029,CST-1368DR,4834,5767,12730,0.817,551
2022-03-25T13:27:09,42.805,6.029,CST-1368DR,4834,5768,12732,0.817,551
2022-03-25T13:30:10,42.805,6.029,CST-1368DR,4834,5766,12727,0.818,551
2022-03-25T13:33:12,42.805,6.029,CST-1368DR,4834,5766,12728,0.818,551
2022-03-25T13:36:13,42.805,6.029,CST-1368DR,4834,5768,12733,0.816,551
2022-03-25T13:39:15,42.805,6.029,CST-1368DR,4834,5763,12721,0.820,551
2022-03-25T13:42:16,42.805,6.029,CST-1368DR,4834,5761,12718,0.821,551
2022-03-25T13:45:18,42.805,6.029,CST-1368DR,4834,5759,12712,0.823,551
2022-03-25T13:48:20,42.805,6.029,CST-1368DR,4834,5762,12718,0.821,551
2022-03-25T13:51:21,42.805,6.029,CST-1368DR,4834,5759,12713,0.823,551
2022-03-25T13:54:23,42.805,6.029,CST-1368DR,4834,5761,12717,0.821,551
2022-03-25T13:57:24,42.805,6.029,CST-1368DR,4834,5756,12706,0.825,551
2022-03-25T14:00:26,42.805,6.029,CST-1368DR,4834,5752,12698,0.827,551
2022-03-25T14:03:28,42.805,6.029,CST-1368DR,4834,5762,12719,0.821,551
2022-03-25T14:06:29,42.805,6.029,CST-1368DR,4834,5764,12724,0.819,551
2022-03-25T14:09:31,42.805,6.029,CST-1368DR,4834,5760,12714,0.822,551
2022-03-25T14:12:32,42.805,6.029,CST-1368DR,4834,5763,12722,0.820,551
2022-03-25T14:15:34,42.805,6.029,CST-1368DR,4834,5765,12727,0.818,551
2022-03-25T14:18:35,42.805,6.029,CST-1368DR,4834,5766,12727,0.818,551
2022-03-25T14:21:37,42.805,6.029,CST-1368DR,4834,5761,12718,0.821,550
2022-03-25T14:24:39,42.805,6.029,CST-1368DR,4834,5760,12714,0.822,551
2022-03-25T14:27:40,42.805,6.029,CST-1368DR,4834,5762,12718,0.821,551
2022-03-25T14:30:42,42.805,6.029,CST-1368DR,4834,5764,12723,0.820,551
2022-03-25T14:33:43,42.805,6.029,CST-1368DR,4834,5767,12730,0.817,551
2022-03-25T14:36:45,42.805,6.029,CST-1368DR,4834,5764,12723,0.820,551
2022-03-25T14:39:46,42.805,6.029,CST-1368DR,4834,5767,12729,0.818,551
2022-03-25T14:42:48,42.805,6.029,CST-1368DR,4834,5766,12728,0.818,551
2022-03-25T14:45:50,42.805,6.029,CST-1368DR,4834,5767,12729,0.818,551
2022-03-25T14:48:51,42.805,6.029,CST-1368DR,4834,5765,12726,0.819,551
2022-03-25T14:51:53,42.805,6.029,CST-1368DR,4833,5764,12727,0.818,551
2022-03-25T14:54:54,42.805,6.029,CST-1368DR,4834,5762,12718,0.821,551
2022-03-25T14:57:56,42.805,6.029,CST-1368DR,4834,5766,12727,0.818,551
2022-03-25T15:00:58,42.805,6.029,CST-1368DR,4834,5763,12721,0.820,551
2022-03-25T15:03:59,42.805,6.029,CST-1368DR,4834,5763,12721,0.820,551
2022-03-25T15:07:01,42.805,6.029,CST-1368DR,4834,5759,12713,0.823,551
2022-03-25T15:10:02,42.805,6.029,CST-1368DR,4834,5760,12715,0.822,551
2022-03-25T15:13:04,42.805,6.029,CST-1368DR,4834,5759,12713,0.823,551
2022-03-25T15:16:05,42.805,6.029,CST-1368DR,4834,5761,12718,0.821,551
2022-03-25T15:19:07,42.805,6.029,CST-1368DR,4834,5759,12712,0.823,551
2022-03-25T15:22:09,42.805,6.029,CST-1368DR,4833,5758,12713,0.823,551
2022-03-25T15:25:10,42.805,6.029,CST-1368DR,4834,5756,12706,0.825,551
2022-03-25T15:28:12,42.805,6.029,CST-1368DR,4834,5757,12709,0.824,551
2022-03-25T15:31:13,42.805,6.029,CST-1368DR,4834,5758,12711,0.823,551
2022-03-25T15:34:15,42.805,6.029,CST-1368DR,4834,5757,12709,0.824,551
2022-03-25T15:37:16,42.805,6.029,CST-1368DR,4834,5756,12706,0.825,550
2022-03-25T15:40:18,42.805,6.029,CST-1368DR,4834,5762,12718,0.821,551
2022-03-25T15:43:20,42.805,6.029,CST-1368DR,4834,5761,12717,0.821,551
2022-03-25T15:46:21,42.805,6.029,CST-1368DR,4834,5758,12711,0.823,551
2022-03-25T15:49:23,42.805,6.029,CST-1368DR,4834,5759,12713,0.823,551
2022-03-25T15:52:24,42.805,6.029,CST-1368DR,4834,5759,12713,0.823,551
2022-03-25T15:55:26,42.805,6.029,CST-1368DR,4834,5760,12715,0.822,551
2022-03-25T15:58:28,42.805,6.029,CST-1368DR,4833,5757,12711,0.823,551
2022-03-25T16:01:29,42.805,6.029,CST-1368DR,4834,5758,12710,0.824,551
2022-03-25T16:04:31,42.805,6.029,CST-1368DR,4834,5757,12708,0.824,551
2022-03-25T16:07:32,42.805,6.029,CST-1368DR,4834,5754,12701,0.826,551
2022-03-25T16:10:34,42.805,6.029,CST-1368DR,4834,5758,12711,0.823,551
2022-03-25T16:13:35,42.805,6.029,CST-1368DR,4834,5759,12713,0.823,551
2022-03-25T16:16:37,42.805,6.029,CST-1368DR,4834,5759,12713,0.823,551
2022-03-25T16:19:39,42.805,6.029,CST-1368DR,4833,5760,12718,0.821,551
2022-03-25T16:22:40,42.805,6.029,CST-1368DR,4833,5758,12713,0.823,551
2022-03-25T16:25:42,42.805,6.029,CST-1368DR,4834,5761,12718,0.821,551
2022-03-25T16:28:43,42.805,6.029,CST-1368DR,4834,5755,12703,0.826,551
2022-03-25T16:31:45,42.805,6.029,CST-1368DR,4834,5759,12712,0.823,551
2022-03-25T16:34:47,42.805,6.029,CST-1368DR,4834,5759,12713,0.823,551
2022-03-25T16:37:48,42.805,6.029,CST-1368DR,4833,5759,12714,0.822,551
2022-03-25T16:40:50,42.805,6.029,CST-1368DR,4833,5757,12711,0.823,550
2022-03-25T16:43:51,42.805,6.029,CST-1368DR,4834,5759,12712,0.823,551
2022-03-25T16:46:53,42.805,6.029,CST-1368DR,4834,5757,12708,0.824,551
2022-03-25T16:49:54,42.805,6.029,CST-1368DR,4834,5753,12698,0.827,551
2022-03-25T16:52:56,42.805,6.029,CST-1368DR,4834,5759,12712,0.823,551